KI7RM-1 Weather Reports


time (UTC)temp
C
wind
direction
speed
KPH
gust
KPH
rain 1hr
cm
rain 24hr
cm
rain mn
cm
humidity
%
barometer
mb
20260507115855 12 7 0.0 3.2 0.00 0.00 0.00 75 1021.8
20260507114915 12 1 0.0 1.6 0.00 0.00 0.00 75 1021.7
20260507113859 12 1 0.0 1.6 0.00 0.00 0.00 75 1021.8
20260507113400 12 1 0.0 3.2 0.00 0.00 0.00 75 1021.8
20260507112856 12 1 0.0 3.2 0.00 0.00 0.00 75 1021.8
20260507112407 12 1 0.0 6.4 0.00 0.00 0.00 75 1021.9
20260507111906 12 1 0.0 6.4 0.00 0.00 0.00 75 1021.8
20260507111409 12 7 0.0 3.2 0.00 0.00 0.00 74 1021.9
20260507110908 12 7 0.0 4.8 0.00 0.00 0.00 75 1021.9
20260507110411 12 7 0.0 4.8 0.00 0.00 0.00 74 1021.9
20260507105911 12 94 0.0 4.8 0.00 0.00 0.00 75 1021.8
20260507105406 12 356 0.0 4.8 0.00 0.00 0.00 74 1021.9
20260507104905 12 356 0.0 4.8 0.00 0.00 0.00 74 1022.0
20260507103907 12 355 0.0 4.8 0.00 0.00 0.00 74 1021.9
20260507103353 12 343 3.2 3.2 0.00 0.00 0.00 74 1022.1
20260507102901 12 35 0.0 1.6 0.00 0.00 0.00 74 1022.0
20260507102356 12 35 0.0 3.2 0.00 0.00 0.00 74 1022.0
20260507101910 12 312 3.2 3.2 0.00 0.00 0.00 74 1022.0
20260507101408 12 312 0.0 3.2 0.00 0.00 0.00 73 1022.1
20260507100354 12 312 1.6 6.4 0.00 0.00 0.00 73 1022.1
20260507095859 12 359 3.2 6.4 0.00 0.00 0.00 73 1022.1
20260507094902 12 345 0.0 1.6 0.00 0.00 0.00 73 1022.3
20260507094401 12 345 0.0 6.4 0.00 0.00 0.00 73 1022.3
20260507093404 12 352 6.4 8.0 0.00 0.00 0.00 72 1022.4
20260507092351 12 345 0.0 9.7 0.00 0.00 0.00 72 1022.4
20260507091854 12 332 3.2 9.7 0.00 0.00 0.00 72 1022.5
20260507091411 12 336 0.0 6.4 0.00 0.00 0.00 71 1022.5
20260507090403 12 355 4.8 9.7 0.00 0.00 0.00 72 1022.5
20260507085908 12 342 1.6 9.7 0.00 0.00 0.00 72 1022.5
20260507085353 12 359 1.6 3.2 0.00 0.00 0.00 72 1022.4
20260507084857 12 359 0.0 8.0 0.00 0.00 0.00 73 1022.5
20260507082856 12 357 1.6 9.7 0.00 0.00 0.00 73 1022.5
20260507082354 12 356 4.8 9.7 0.00 0.00 0.00 73 1022.5
20260507081854 12 342 9.7 9.7 0.00 0.00 0.00 74 1022.5
20260507081400 12 58 0.0 11.3 0.00 0.00 0.00 74 1022.5
20260507075910 13 352 4.8 9.7 0.00 0.00 0.00 75 1022.5
20260507075411 13 342 0.0 9.7 0.00 0.00 0.00 75 1022.5
20260507074852 13 1 3.2 9.7 0.00 0.00 0.00 75 1022.6
20260507074358 13 357 6.4 9.7 0.00 0.00 0.00 75 1022.5
20260507073905 13 327 9.7 9.7 0.00 0.00 0.00 75 1022.5
20260507073439 13 21 0.0 8.0 0.00 0.00 0.00 75 1022.5
20260507072356 13 351 9.7 9.7 0.00 0.00 0.00 75 1022.4
20260507071854 13 338 0.0 12.9 0.00 0.00 0.00 75 1022.4
20260507071353 13 354 3.2 12.9 0.00 0.00 0.00 75 1022.4
20260507070853 13 355 0.0 12.9 0.00 0.00 0.00 75 1022.4
20260507070412 13 322 0.0 3.2 0.00 0.00 0.00 75 1022.2
20260507065856 13 358 1.6 6.4 0.00 0.00 0.00 75 1022.2
20260507064901 13 0 0.0 8.0 0.00 0.00 0.00 76 1022.3
20260507064401 13 337 3.2 8.0 0.00 0.00 0.00 76 1022.3
20260507063901 13 340 0.0 4.8 0.00 0.00 0.00 76 1022.3
20260507062903 13 351 3.2 8.0 0.00 0.00 0.00 76 1022.3
20260507062402 13 335 0.0 9.7 0.00 0.00 0.00 76 1022.4
20260507061904 13 350 9.7 9.7 0.00 0.00 0.00 76 1022.4
20260507061404 13 47 0.0 4.8 0.00 0.00 0.00 77 1022.4
20260507060359 13 323 4.8 9.7 0.00 0.00 0.00 77 1022.4
20260507055900 13 2 4.8 9.7 0.00 0.00 0.00 77 1022.4
20260507055404 13 359 0.0 9.7 0.00 0.00 0.00 77 1022.4
20260507054907 13 330 8.0 8.0 0.00 0.00 0.00 76 1022.4
20260507053855 13 9 0.0 11.3 0.00 0.00 0.00 76 1022.4
20260507053410 13 359 3.2 12.9 0.00 0.00 0.00 76 1022.4
20260507052410 13 23 0.0 9.7 0.00 0.00 0.00 76 1022.4
20260507051908 13 343 4.8 11.3 0.00 0.00 0.00 76 1022.3
20260507051354 13 345 4.8 11.3 0.00 0.00 0.00 76 1022.3
20260507050858 13 352 0.0 6.4 0.00 0.00 0.00 76 1022.2
20260507050357 13 359 6.4 8.0 0.00 0.00 0.00 75 1022.3
20260507044405 14 2 4.8 11.3 0.00 0.00 0.00 75 1022.3
20260507043853 14 0 0.0 9.7 0.00 0.00 0.00 75 1022.2
20260507042411 14 52 1.6 12.9 0.00 0.00 0.00 74 1022.2
20260507041904 15 1 3.2 12.9 0.00 0.00 0.00 74 1022.0
20260507040853 15 21 0.0 14.5 0.00 0.00 0.00 73 1021.9
20260507040355 15 350 1.6 14.5 0.00 0.00 0.00 73 1021.9
20260507035852 15 1 4.8 8.0 0.00 0.00 0.00 73 1021.8
20260507034906 15 24 8.0 11.3 0.00 0.00 0.00 73 1021.6
20260507033910 15 326 1.6 16.1 0.00 0.00 0.00 73 1021.5
20260507033351 15 346 8.0 16.1 0.00 0.00 0.00 73 1021.4
20260507032400 15 352 3.2 4.8 0.00 0.00 0.00 74 1021.3
20260507031855 15 329 1.6 6.4 0.00 0.00 0.00 74 1021.2
20260507031353 15 323 1.6 12.9 0.00 0.00 0.00 74 1021.2
20260507030855 15 320 3.2 12.9 0.00 0.00 0.00 73 1021.1
20260507030402 15 308 0.0 12.9 0.00 0.00 0.00 73 1021.0
20260507025908 16 318 6.4 12.9 0.00 0.00 0.00 73 1021.0
20260507025353 16 295 3.2 8.0 0.00 0.00 0.00 73 1020.9
20260507024407 16 303 0.0 9.7 0.00 0.00 0.00 72 1020.8
20260507023909 16 0 0.0 9.7 0.00 0.00 0.00 72 1020.8
20260507023352 16 325 0.0 11.3 0.00 0.00 0.00 72 1020.8
20260507022855 16 0 0.0 11.3 0.00 0.00 0.00 72 1020.7
20260507022357 16 339 0.0 8.0 0.00 0.00 0.00 72 1020.8
20260507021858 16 338 1.6 8.0 0.00 0.00 0.00 71 1020.8
20260507021353 17 1 3.2 8.0 0.00 0.00 0.00 70 1020.8
20260507020853 17 324 0.0 11.3 0.00 0.00 0.00 70 1020.8
20260507020355 17 290 0.0 11.3 0.00 0.00 0.00 70 1020.7
20260507015900 17 8 1.6 11.3 0.00 0.00 0.00 70 1020.8
20260507014851 17 339 1.6 12.9 0.00 0.00 0.00 70 1020.8
20260507014352 17 335 8.0 17.7 0.00 0.00 0.00 70 1020.9
20260507013408 17 336 6.4 19.3 0.00 0.00 0.00 68 1020.8
20260507012909 17 346 8.0 19.3 0.00 0.00 0.00 68 1020.8
20260507011854 18 346 1.6 16.1 0.00 0.00 0.00 68 1020.8
20260507011359 18 333 4.8 14.5 0.00 0.00 0.00 67 1020.8
20260507010855 18 358 4.8 12.9 0.00 0.00 0.00 67 1020.7
20260507010354 18 348 4.8 12.9 0.00 0.00 0.00 67 1020.8
20260507005854 18 332 6.4 12.9 0.00 0.00 0.00 67 1020.7
20260507005354 18 351 6.4 12.9 0.00 0.00 0.00 68 1020.7
20260507004406 19 0 3.2 11.3 0.00 0.00 0.00 67 1020.7
20260507003906 19 339 3.2 8.0 0.00 0.00 0.00 68 1020.7
20260507003406 19 312 8.0 14.5 0.00 0.00 0.00 68 1020.5
20260507002904 19 357 4.8 14.5 0.00 0.00 0.00 67 1020.6
20260507002400 20 342 3.2 9.7 0.00 0.00 0.00 67 1020.5
20260507001903 20 0 0.0 9.7 0.00 0.00 0.00 67 1020.5
20260507000859 20 0 1.6 9.7 0.00 0.00 0.00 65 1020.5
20260507000358 20 293 0.0 8.0 0.00 0.00 0.00 64 1020.5
20260506235857 21 318 6.4 6.4 0.00 0.00 0.00 62 1020.5
20260506235357 21 333 0.0 6.4 0.00 0.00 0.00 62 1020.5
20260506234852 21 332 1.6 6.4 0.00 0.00 0.00 63 1020.6
20260506234356 21 245 0.0 4.8 0.00 0.00 0.00 61 1020.5
20260506233903 21 236 1.6 4.8 0.00 0.00 0.00 61 1020.5
20260506233404 21 262 0.0 3.2 0.00 0.00 0.00 63 1020.5
20260506232406 21 265 0.0 3.2 0.00 0.00 0.00 64 1020.6
20260506231900 21 277 3.2 3.2 0.00 0.00 0.00 64 1020.6
20260506231402 21 322 1.6 1.6 0.00 0.00 0.00 63 1020.6
20260506230907 21 322 0.0 0.0 0.00 0.00 0.00 63 1020.7
20260506225859 20 314 0.0 3.2 0.00 0.00 0.00 64 1020.8
20260506224855 20 354 0.0 1.6 0.00 0.00 0.00 65 1021.0
20260506224353 20 353 0.0 3.2 0.00 0.00 0.00 64 1021.0
20260506223858 20 353 0.0 3.2 0.00 0.00 0.00 64 1021.1
20260506223403 20 353 1.6 1.6 0.00 0.00 0.00 64 1021.1
20260506222905 20 353 0.0 1.6 0.00 0.00 0.00 64 1021.2
20260506222407 20 353 0.0 3.2 0.00 0.00 0.00 65 1021.2
20260506221905 20 353 0.0 3.2 0.00 0.00 0.00 65 1021.1
20260506221402 20 352 3.2 3.2 0.00 0.00 0.00 68 1021.2
20260506220902 19 279 0.0 1.6 0.00 0.00 0.00 69 1021.3
20260506220407 19 279 0.0 3.2 0.00 0.00 0.00 68 1021.3
20260506215909 18 279 0.0 3.2 0.00 0.00 0.00 69 1021.3
20260506215355 18 164 0.0 4.8 0.00 0.00 0.00 69 1021.2
20260506214855 18 164 1.6 11.3 0.00 0.00 0.00 70 1021.1
20260506214354 18 164 6.4 11.3 0.00 0.00 0.00 70 1021.2
20260506213908 18 162 0.0 4.8 0.00 0.00 0.00 69 1021.2
20260506212854 18 171 0.0 1.6 0.00 0.00 0.00 70 1021.4
20260506212350 18 171 0.0 1.6 0.00 0.00 0.00 70 1021.5
20260506211357 18 171 1.6 6.4 0.00 0.00 0.00 71 1021.6
20260506210851 18 185 0.0 11.3 0.00 0.00 0.00 70 1021.7
20260506210409 18 163 1.6 11.3 0.00 0.00 0.00 71 1021.7
20260506205908 18 160 6.4 8.0 0.00 0.00 0.00 72 1021.6
20260506205409 18 158 1.6 8.0 0.00 0.00 0.00 71 1021.6
20260506204853 18 175 3.2 3.2 0.00 0.00 0.00 72 1021.6
20260506204402 18 175 0.0 3.2 0.00 0.00 0.00 71 1021.5
20260506203356 18 161 1.6 4.8 0.00 0.00 0.00 72 1021.7
20260506202352 17 165 1.6 9.7 0.00 0.00 0.00 74 1021.5
20260506201403 17 158 3.2 8.0 0.00 0.00 0.00 74 1021.7
20260506200904 17 165 1.6 8.0 0.00 0.00 0.00 74 1021.7
20260506200400 17 159 0.0 8.0 0.00 0.00 0.00 73 1021.7
20260506195356 17 221 3.2 4.8 0.00 0.00 0.00 75 1021.9
20260506194402 17 190 0.0 6.4 0.00 0.00 0.00 77 1022.1
20260506193904 16 220 1.6 6.4 0.00 0.00 0.00 76 1022.1
20260506193403 16 190 4.8 4.8 0.00 0.00 0.00 76 1022.1
20260506192901 16 174 1.6 6.4 0.00 0.00 0.00 76 1022.1
20260506192356 16 207 4.8 6.4 0.00 0.00 0.00 77 1022.0
20260506191404 16 183 1.6 6.4 0.00 0.00 0.00 77 1021.9
20260506190903 16 173 0.0 9.7 0.00 0.00 0.00 77 1021.9
20260506190406 16 172 0.0 12.9 0.00 0.00 0.00 77 1022.0
20260506185401 16 178 1.6 8.0 0.00 0.00 0.00 78 1021.9
20260506184403 16 178 4.8 8.0 0.00 0.00 0.00 78 1021.8
20260506183900 15 162 6.4 8.0 0.00 0.00 0.00 78 1021.8
20260506183404 15 194 4.8 8.0 0.00 0.00 0.00 79 1021.9
20260506182908 15 200 3.2 3.2 0.00 0.00 0.00 80 1021.9
20260506181900 15 208 3.2 3.2 0.00 0.00 0.00 81 1022.0
20260506180858 15 208 0.0 0.0 0.00 0.00 0.00 82 1022.0
20260506180401 15 208 0.0 0.0 0.00 0.00 0.00 81 1022.0
20260506175906 15 208 0.0 1.6 0.00 0.00 0.00 81 1022.0
20260506175351 15 208 0.0 1.6 0.00 0.00 0.00 82 1022.0
20260506174906 15 208 0.0 1.6 0.00 0.00 0.00 81 1022.0
20260506174405 15 208 0.0 1.6 0.00 0.00 0.00 82 1022.0
20260506173408 15 208 0.0 0.0 0.00 0.00 0.00 83 1021.8
20260506172354 14 208 0.0 0.0 0.00 0.00 0.00 83 1021.7
20260506171853 14 208 0.0 3.2 0.00 0.00 0.00 83 1021.7
20260506170854 14 254 3.2 3.2 0.00 0.00 0.00 83 1021.9
20260506170351 14 336 0.0 3.2 0.00 0.00 0.00 83 1021.8
20260506165358 14 338 0.0 3.2 0.00 0.00 0.00 82 1021.9
20260506164859 14 341 0.0 1.6 0.00 0.00 0.00 82 1021.7
20260506164401 14 341 1.6 1.6 0.00 0.00 0.00 82 1021.8
20260506163858 14 342 0.0 3.2 0.00 0.00 0.00 83 1021.7
20260506163353 14 342 0.0 3.2 0.00 0.00 0.00 82 1021.8
20260506162856 14 348 3.2 3.2 0.00 0.00 0.00 82 1021.7
20260506162357 14 359 0.0 3.2 0.00 0.00 0.00 82 1021.5
20260506161859 14 0 1.6 1.6 0.00 0.00 0.00 83 1021.5
20260506161405 14 0 0.0 1.6 0.00 0.00 0.00 82 1021.5
20260506160404 14 0 0.0 3.2 0.00 0.00 0.00 83 1021.3
20260506155901 14 0 0.0 3.2 0.00 0.00 0.00 83 1021.3
20260506154849 14 0 0.0 1.6 0.00 0.00 0.00 85 1020.9
20260506154353 13 359 0.0 1.6 0.00 0.00 0.00 85 1020.9
20260506153859 13 359 0.0 3.2 0.00 0.00 0.00 84 1021.1
20260506153357 13 359 0.0 3.2 0.00 0.00 0.00 84 1021.5
20260506152355 13 359 0.0 8.0 0.00 0.00 0.00 84 1021.7
20260506151858 13 359 1.6 8.0 0.00 0.00 0.00 84 1021.8
20260506151401 13 357 1.6 1.6 0.00 0.00 0.00 84 1021.9
20260506150354 13 8 1.6 6.4 0.00 0.00 0.00 85 1021.7
20260506145847 13 342 1.6 6.4 0.00 0.00 0.00 84 1021.7
20260506145407 14 331 1.6 6.4 0.00 0.00 0.00 84 1021.6
20260506144907 14 331 0.0 8.0 0.00 0.00 0.00 84 1021.4
20260506144406 14 309 6.4 8.0 0.00 0.00 0.00 84 1021.5
20260506143853 14 342 6.4 6.4 0.00 0.00 0.00 84 1021.4
20260506143400 14 30 0.0 0.0 0.00 0.00 0.00 84 1021.3
20260506142855 14 30 0.0 1.6 0.00 0.00 0.00 84 1021.0
20260506141910 14 51 0.0 0.0 0.00 0.00 0.00 84 1020.9
20260506140352 13 51 0.0 0.0 0.00 0.00 0.00 84 1020.8
20260506135854 13 51 0.0 0.0 0.00 0.00 0.00 84 1021.0
20260506135352 13 51 0.0 0.0 0.00 0.00 0.00 85 1020.8
20260506134909 13 51 0.0 0.0 0.00 0.00 0.00 85 1020.7
20260506133904 13 51 0.0 0.0 0.00 0.00 0.00 85 1020.6
20260506133406 13 51 0.0 0.0 0.00 0.00 0.00 85 1020.6
20260506132908 13 51 0.0 0.0 0.00 0.00 0.00 85 1020.6
20260506132407 13 51 0.0 0.0 0.00 0.00 0.00 84 1020.6
20260506131905 13 51 0.0 0.0 0.00 0.00 0.00 85 1020.5
20260506131401 13 51 0.0 0.0 0.00 0.00 0.00 84 1020.5
20260506130859 13 51 0.0 0.0 0.00 0.00 0.00 84 1020.4
20260506130402 13 51 0.0 0.0 0.00 0.00 0.00 84 1020.5
20260506125847 13 51 0.0 0.0 0.00 0.00 0.00 84 1020.4
20260506125409 13 51 0.0 0.0 0.00 0.00 0.00 84 1020.4
20260506124850 13 51 0.0 0.0 0.00 0.00 0.00 84 1020.3
20260506124406 13 51 0.0 0.0 0.00 0.00 0.00 84 1020.3
20260506123859 13 51 0.0 0.0 0.00 0.00 0.00 84 1020.2
20260506122901 13 51 0.0 3.2 0.00 0.00 0.00 84 1020.3
20260506122355 13 351 0.0 3.2 0.00 0.00 0.00 84 1020.3
20260506121404 13 351 1.6 4.8 0.00 0.00 0.00 84 1020.3
20260506120858 13 347 1.6 3.2 0.00 0.00 0.00 83 1020.3
20260506120403 13 0 0.0 0.0 0.00 0.00 0.00 83 1020.2